Time,TemperatureF,DewpointF,PressureIn,WindDirection,WindDirectionDegrees,WindSpeedMPH,WindSpeedGustMPH,Humidity,HourlyPrecipIn,Conditions,Clouds,dailyrainin,SoftwareType,DateUTC
2013-04-14 00:02:00,55.0,35.0,28.69,WNW,303,2.0,8.0,46,0.00,,,0.00,,2013-04-14 07:02:00,
2013-04-14 00:12:00,55.0,35.0,28.69,WNW,303,2.0,8.0,46,0.00,,,0.00,,2013-04-14 07:12:00,
2013-04-14 00:22:00,55.0,35.0,28.70,North,5,0.0,4.0,47,0.00,,,0.00,,2013-04-14 07:22:00,
2013-04-14 00:32:00,54.0,35.0,28.70,NNW,329,0.0,3.0,48,0.00,,,0.00,,2013-04-14 07:32:00,
2013-04-14 00:42:00,54.0,35.0,28.70,NNW,329,0.0,3.0,48,0.00,,,0.00,,2013-04-14 07:42:00,
2013-04-14 00:52:00,54.0,35.0,28.70,NW,311,0.0,5.0,48,0.00,,,0.00,,2013-04-14 07:52:00,
2013-04-14 01:02:00,54.0,34.0,28.70,NNW,329,0.0,5.0,47,0.00,,,0.00,,2013-04-14 08:02:00,
2013-04-14 01:12:00,54.0,34.0,28.70,NNW,329,0.0,5.0,47,0.00,,,0.00,,2013-04-14 08:12:00,
2013-04-14 01:22:00,53.0,34.0,28.70,NNE,24,1.0,6.0,48,0.00,,,0.00,,2013-04-14 08:22:00,
2013-04-14 01:32:00,53.0,34.0,28.70,NNE,24,2.0,5.0,48,0.00,,,0.00,,2013-04-14 08:32:00,
2013-04-14 01:42:00,53.0,34.0,28.70,NNE,24,2.0,5.0,48,0.00,,,0.00,,2013-04-14 08:42:00,
2013-04-14 01:52:00,52.0,33.0,28.70,NW,316,0.0,3.0,49,0.00,,,0.00,,2013-04-14 08:52:00,
2013-04-14 02:02:00,52.0,32.0,28.70,West,281,0.0,6.0,47,0.00,,,0.00,,2013-04-14 09:02:00,
2013-04-14 02:12:00,52.0,32.0,28.70,West,281,0.0,6.0,47,0.00,,,0.00,,2013-04-14 09:12:00,
2013-04-14 02:22:00,51.0,33.0,28.70,NW,306,0.0,2.0,49,0.00,,,0.00,,2013-04-14 09:22:00,
2013-04-14 02:32:00,50.0,33.0,28.70,NW,306,0.0,1.0,52,0.00,,,0.00,,2013-04-14 09:32:00,
2013-04-14 02:42:00,50.0,33.0,28.70,NW,306,0.0,1.0,52,0.00,,,0.00,,2013-04-14 09:42:00,
2013-04-14 02:53:00,50.0,34.0,28.70,NW,309,0.0,0.0,53,0.00,,,0.00,,2013-04-14 09:53:00,
2013-04-14 03:02:00,49.0,33.0,28.69,NNW,329,0.0,2.0,54,0.00,,,0.00,,2013-04-14 10:02:00,
2013-04-14 03:12:00,49.0,33.0,28.69,NNW,329,0.0,2.0,54,0.00,,,0.00,,2013-04-14 10:12:00,
2013-04-14 03:22:00,49.0,33.0,28.70,NW,317,0.0,0.0,53,0.00,,,0.00,,2013-04-14 10:22:00,
2013-04-14 03:32:00,49.0,34.0,28.70,ENE,68,0.0,1.0,55,0.00,,,0.00,,2013-04-14 10:32:00,
2013-04-14 03:42:00,49.0,34.0,28.70,ENE,68,0.0,1.0,55,0.00,,,0.00,,2013-04-14 10:42:00,
2013-04-14 03:52:00,48.0,34.0,28.69,ESE,103,0.0,1.0,57,0.00,,,0.00,,2013-04-14 10:52:00,
2013-04-14 04:02:00,48.0,33.0,28.70,ENE,68,0.0,5.0,56,0.00,,,0.00,,2013-04-14 11:02:00,
2013-04-14 04:12:00,48.0,33.0,28.70,ENE,68,0.0,5.0,56,0.00,,,0.00,,2013-04-14 11:12:00,
2013-04-14 04:22:00,47.0,33.0,28.70,ENE,66,0.0,2.0,57,0.00,,,0.00,,2013-04-14 11:22:00,
2013-04-14 04:32:00,47.0,32.0,28.70,WNW,302,0.0,2.0,56,0.00,,,0.00,,2013-04-14 11:32:00,
2013-04-14 04:42:00,47.0,32.0,28.70,WNW,302,0.0,2.0,56,0.00,,,0.00,,2013-04-14 11:42:00,
2013-04-14 04:52:00,48.0,34.0,28.70,North,360,0.0,1.0,58,0.00,,,0.00,,2013-04-14 11:52:00,
2013-04-14 05:02:00,47.0,34.0,28.70,North,360,0.0,1.0,60,0.00,,,0.00,,2013-04-14 12:02:00,
2013-04-14 05:12:00,47.0,34.0,28.70,North,360,0.0,1.0,60,0.00,,,0.00,,2013-04-14 12:12:00,
2013-04-14 05:21:00,47.0,33.0,28.70,NW,313,0.0,3.0,57,0.00,,,0.00,,2013-04-14 12:21:00,
2013-04-14 05:32:00,47.0,32.0,28.69,NW,309,0.0,4.0,56,0.00,,,0.00,,2013-04-14 12:32:00,
2013-04-14 05:42:00,47.0,32.0,28.69,NW,309,0.0,4.0,56,0.00,,,0.00,,2013-04-14 12:42:00,
2013-04-14 05:51:00,47.0,32.0,28.69,NW,313,1.0,3.0,55,0.00,,,0.00,,2013-04-14 12:51:00,
2013-04-14 06:02:00,47.0,32.0,28.69,NW,312,0.0,3.0,56,0.00,,,0.00,,2013-04-14 13:02:00,
2013-04-14 06:12:00,47.0,32.0,28.69,NW,312,0.0,3.0,56,0.00,,,0.00,,2013-04-14 13:12:00,
2013-04-14 06:22:00,47.0,32.0,28.69,SW,225,0.0,4.0,55,0.00,,,0.00,,2013-04-14 13:22:00,
2013-04-14 06:32:00,46.0,32.0,28.70,ENE,69,0.0,2.0,57,0.00,,,0.00,,2013-04-14 13:32:00,
2013-04-14 06:42:00,46.0,32.0,28.70,ENE,69,0.0,2.0,57,0.00,,,0.00,,2013-04-14 13:42:00,
2013-04-14 06:52:00,46.0,32.0,28.70,ENE,69,0.0,2.0,57,0.00,,,0.00,,2013-04-14 13:52:00,
2013-04-14 07:02:00,46.0,32.0,28.70,ENE,69,0.0,2.0,57,0.00,,,0.00,,2013-04-14 14:02:00,
2013-04-14 23:52:00,48.0,39.0,28.63,NW,313,0.0,5.0,71,0.00,,,0.00,,2013-04-15 06:52:00,